This demonstration page uses our WeatherBlox Daily Observations layout. Learn more.

38.88101, -77.10428

Hourly Observations for September 25, 2018

Temp ( °F °C ) Dew Point ( °F °C ) Humidity (%) Winds ( mph kmh ) Pressure ( in mb ) Visibility ( mi km ) Precip ( " mm )
12:08 am 00:08 Cloudy with Light Rain 67 19.4 64 17.8 91 91 E 10 17 30.33 1027 7 11.26538 0.02 0.508
12:24 am 00:24 Cloudy with Light Rain 67 19.4 64 17.8 91 91 E 10 17 30.33 1027 5 8.0467 0.02 0.508
12:33 am 00:33 Cloudy with Light Rain 67 19.4 64 17.8 91 91 E 8 13 30.33 1027 4 6.43736 0.03 0.762
12:42 am 00:42 Cloudy with Light Rain 68 20 64 17.8 87 87 E 8 13 30.33 1027 7 11.26538 0.03 0.762
12:52 am 00:52 Cloudy with Light Rain 68 20 65 18.3 90 90 E 8 13 30.32 1027 6 9.65604 0.03 0.762
1:35 am 01:35 Cloudy with Rain 68 20 64 17.8 87 87 E 10 17 30.3 1026 3 4.82802 0.03 0.762
1:52 am 01:52 Cloudy with Light Rain 68 20 65 18.3 90 90 E 10 17 30.3 1026 9 14.48406 0.04 1.016
2:11 am 02:11 Cloudy with Light Rain 68 20 65 18.3 90 90 E 10 17 30.3 1026 5 8.0467 0.01 0.254
2:42 am 02:42 Cloudy with Light Drizzle 68 20 65 18.3 90 90 E 8 13 30.27 1025 9 14.48406 0.01 0.254
2:52 am 02:52 Cloudy 68 20 65 18.3 90 90 E 5 7 30.27 1025 10 16.0934 0.01 0.254
3:05 am 03:05 Cloudy 68 20 65 18.3 90 90 NE 7 11 30.27 1025 10 16.0934 0 0
3:17 am 03:17 Cloudy with Light Rain 68 20 65 18.3 90 90 ENE 6 9 30.27 1025 10 16.0934 0 0.0254
3:52 am 03:52 Cloudy 68 20 65 18.3 90 90 NNE 6 9 30.25 1025 10 16.0934 0 0.0254
4:44 am 04:44 Cloudy 68 20 65 18.3 90 90 NE 5 7 30.27 1025 10 16.0934 0 0.0254
4:52 am 04:52 Cloudy 68 20 65 18.3 90 90 NE 3 6 30.25 1024 10 16.0934 0 0.0254
5:27 am 05:27 Cloudy with Light Rain 68 20 65 18.3 90 90 NNE 5 7 30.24 1024 9 14.48406 0 0.0254
5:52 am 05:52 Cloudy with Light Rain 68 20 66 18.9 93 93 NNE 5 7 30.24 1024 10 16.0934 0 0.0254
6:26 am 06:26 Cloudy 69 20.6 66 18.9 90 90 VRB 3 6 30.24 1024 10 16.0934 0 0.0254
6:52 am 06:52 Cloudy 69 20.6 66 18.9 90 90 NE 5 7 30.24 1024 10 16.0934 0 0.0254
7:52 am 07:52 Cloudy 70 21.1 67 19.4 90 90 N 3 6 30.25 1024 9 14.48406 0 0
8:52 am 08:52 Cloudy 71 21.7 68 20 90 90 SSE 5 7 30.25 1024 9 14.48406 0 0.0254
9:52 am 09:52 Cloudy with Rain 72 22.2 69 20.6 91 91 Calm 30.25 1024 2.5 4.02335 0.03 0.762
10:03 am 10:03 Cloudy with Light Rain 73 22.8 70 21.1 90 90 Calm 30.24 1024 4 6.43736 0.02 0.508
10:42 am 10:42 Cloudy 74 23.3 71 21.7 91 91 S 5 7 30.24 1024 7 11.26538 0.02 0.508
10:52 am 10:52 Cloudy 74 23.3 71 21.7 91 91 S 6 9 30.24 1024 9 14.48406 0.02 0.508
11:35 am 11:35 Cloudy 78 25.6 73 22.8 85 85 VRB 5 7 30.24 1024 10 16.0934 0 0
11:52 am 11:52 Cloudy 79 26.1 73 22.8 82 82 SSW 8 13 30.22 1024 10 16.0934 0 0
12:14 pm 12:14 Cloudy with Light Rain 79 26.1 72 22.2 79 79 SSW 6 9 30.21 1023 5 8.0467 0 0.0254
12:26 pm 12:26 Cloudy 79 26.1 73 22.8 82 82 SW 12 19 30.21 1023 10 16.0934 0 0.0254
12:52 pm 12:52 Cloudy 80 26.7 72 22.2 76 76 SW 12 19 30.21 1023 10 16.0934 0 0.0254
1:39 pm 13:39 Cloudy 79 26.1 72 22.2 79 79 S 7 11 30.18 1022 10 16.0934 0 0
1:47 pm 13:47 Cloudy 79 26 72 22 79 79 S 9 15 30.18 1022 10 16.0934 0 0
1:52 pm 13:52 Cloudy 78 25.6 72 22.2 82 82 SSW 8 13 30.19 1022 10 16.0934 0 0
2:13 pm 14:13 Cloudy 81 27.2 71 21.7 72 72 SSW 10 17 30.18 1022 10 16.0934 0 0
2:52 pm 14:52 Mostly Cloudy 81 27.2 71 21.7 72 72 S 7 11 30.16 1022 10 16.0934 0 0
3:02 pm 15:02 Mostly Cloudy 80 26.7 71 21.7 74 74 S 8 13 30.18 1022 10 16.0934 0 0
3:28 pm 15:28 Mostly Cloudy 80 26.7 70 21.1 71 71 S 6 9 30.15 1021 10 16.0934 0 0
3:52 pm 15:52 Mostly Cloudy 80 26.7 70 21.1 71 71 S 7 11 30.16 1021 10 16.0934 0 0
4:32 pm 16:32 Mostly Cloudy 80 26.7 71 21.7 74 74 S 8 13 30.15 1021 10 16.0934 0 0
4:52 pm 16:52 Mostly Cloudy 79 26.1 71 21.7 77 77 S 8 13 30.15 1021 10 16.0934 0 0
4:59 pm 16:59 Mostly Cloudy 79 26.1 71 21.7 77 77 S 8 13 30.15 1021 10 16.0934 0 0
5:52 pm 17:52 Mostly Cloudy 80 26.7 72 22.2 76 76 S 6 9 30.14 1021 10 16.0934 0 0.0254
6:52 pm 18:52 Mostly Cloudy 78 25.6 72 22.2 82 82 S 6 9 30.13 1020 10 16.0934 0 0
7:52 pm 19:52 Mostly Cloudy 75 23.9 71 21.7 88 88 S 3 6 30.12 1020 10 16.0934 0 0
8:52 pm 20:52 Mostly Cloudy 74 23.3 71 21.7 91 91 S 5 7 30.12 1020 9 14.48406 0 0
9:52 pm 21:52 Mostly Cloudy 74 23.3 72 22.2 94 94 SSW 6 9 30.11 1020 10 16.0934 0 0
10:02 pm 22:02 Mostly Cloudy 77 25 72 22.2 85 85 S 7 11 30.12 1020 10 16.0934 0 0
10:10 pm 22:10 Mostly Cloudy 74 23.3 71 21.7 91 91 S 7 11 30.12 1020 10 16.0934 0 0
10:19 pm 22:19 Mostly Cloudy 74 23.3 71 21.7 91 91 S 8 13 30.12 1020 10 16.0934 0 0
10:25 pm 22:25 Mostly Cloudy 74 23.3 71 21.7 91 91 S 8 13 30.12 1020 10 16.0934 0 0
10:31 pm 22:31 Mostly Cloudy 74 23.3 71 21.7 91 91 S 8 13 30.12 1020 10 16.0934 0 0
10:52 pm 22:52 Mostly Cloudy 74 23.3 71 21.7 91 91 S 7 11 30.11 1020 10 16.0934 0 0
11:38 pm 23:38 Mostly Cloudy 73 22.8 71 21.7 94 94 S 7 11 30.09 1019 10 16.0934 0 0
11:52 pm 23:52 Mostly Cloudy 73 22.8 71 21.7 94 94 S 8 13 30.1 1019 10 16.0934 0 0

Powered by AerisWeather